Location: Gollag?dem
(16.8053°N, 80.8024°E)
Time: 13:37:20
(UTC+00:00)

Cosmos 1697 Rocket - Pass Details

Date: 13 August 2020
Orbit: 834 x 842 km, 71.0° (Epoch: 24 September)

Event Time Altitude Azimuth Distance (km) Brightness Sun altitude
Rises 14:33:32 0° 359° (N) 3,373 6.1 -21.3°
Reaches altitude 10° 14:36:18 10° 11° (N) 2,439 5.2 -21.9°
Enters shadow 14:40:13 28° 54° (NE) 1,530 3.8 -22.8°
